This is the latest recevied weather packets stored in our database for station/object NorthRyde. If no packets are shown the sender has not sent any weather packets the latest 10 day(s).
| Time | Temp. | Humidity | Pressure | Rain* | Wind** | Luminosity | Snow |
|---|---|---|---|---|---|---|---|
| 1777602160 | 22.78° C | 68% | 1029.4 hPa | 0 mm | - | 334 W/m² | - |
| 1777602134 | 22.78° C | 68% | 1029.3 hPa | 0 mm | - | 338 W/m² | - |
| 1777602114 | 22.78° C | 68% | 1029.4 hPa | 0 mm | - | 341 W/m² | - |
| 1777602091 | 22.78° C | 68% | 1029.5 hPa | 0 mm | - | 343 W/m² | - |
| 1777601919 | 22.78° C | 68% | 1029.4 hPa | 0 mm | - | 343 W/m² | - |
| 1777601859 | 22.78° C | 68% | 1029.4 hPa | 0 mm | - | 350 W/m² | - |
| 1777601799 | 22.78° C | 69% | 1029.5 hPa | 0 mm | - | 346 W/m² | - |
| 1777601739 | 22.78° C | 69% | 1029.6 hPa | 0 mm | - | 332 W/m² | - |
| 1777601683 | 22.78° C | 69% | 1029.6 hPa | 0 mm | - | 332 W/m² | - |
| 1777601618 | 22.78° C | 70% | 1029.5 hPa | 0 mm | - | 334 W/m² | - |
| 1777601562 | 22.78° C | 70% | 1029.5 hPa | 0 mm | - | 339 W/m² | - |
| 1777601499 | 22.78° C | 70% | 1029.5 hPa | 0 mm | - | 350 W/m² | - |
| 1777601437 | 22.78° C | 70% | 1029.5 hPa | 0 mm | - | 350 W/m² | - |
| 1777601377 | 22.78° C | 69% | 1029.5 hPa | 0 mm | - | 359 W/m² | - |
| 1777601263 | 22.78° C | 69% | 1029.7 hPa | 0 mm | - | 376 W/m² | - |
| 1777601235 | 22.78° C | 69% | 1029.7 hPa | 0 mm | - | 352 W/m² | - |
| 1777601215 | 22.78° C | 69% | 1029.7 hPa | 0 mm | - | 338 W/m² | - |
| 1777601195 | 22.78° C | 69% | 1029.7 hPa | 0 mm | - | 330 W/m² | - |
| 1777601001 | 22.78° C | 70% | 1029.7 hPa | 0 mm | - | 325 W/m² | - |
| 1777600937 | 22.78° C | 71% | 1029.8 hPa | 0 mm | - | 320 W/m² | - |
| 1777600881 | 22.78° C | 71% | 1029.7 hPa | 0 mm | - | 322 W/m² | - |
| 1777600818 | 22.78° C | 71% | 1029.8 hPa | 0 mm | - | 330 W/m² | - |
| 1777600760 | 22.78° C | 71% | 1029.9 hPa | 0 mm | - | 350 W/m² | - |
| 1777600700 | 22.78° C | 72% | 1029.8 hPa | 0 mm | - | 376 W/m² | - |
| 1777600648 | 22.78° C | 72% | 1029.8 hPa | 0 mm | - | 383 W/m² | - |
* Rain latest hour (hover to see other rain measurements)
** Current wind speed in m/s (hover to see current wind gust speed)